Weather History for KSSI - June, 2013

Change the Weather History Date:

Sunday, June 16, 2013

  Actual Average Record
Temperature  
Mean Temperature 81 °F 80 °F  
Max Temperature 85 °F 88 °F 98 °F (1964)
Min Temperature 77 °F 73 °F 64 °F (1972)
Degree Days  
Heating Degree Days 0 0  
Month to date heating degree days 0 0  
Since 1 June heating degree days 0 0  
Since 1 July heating degree days 1268 1488  
Cooling Degree Days 16 15  
Month to date cooling degree days 267 230  
Year to date cooling degree days 668 672  
Since 1 June cooling degree days 267 230  
Growing Degree Days 30 (Base 50)    
Moisture  
Dew Point 66 °F    
Average Humidity 63    
Maximum Humidity 74    
Minimum Humidity 51    
Precipitation  
Precipitation 0.00 in 0.18 in 1.79 in (1971)
Month to date precipitation 3.12 2.52  
Year to date precipitation 15.54 17.44  
Snow  
Snow 0.00 in - 0.00 in ()
Month to date snowfall 0.0  
Since 1 June snowfall 0.0  
Since 1 July snowfall 0.0  
Snow Depth 0.00 in    
Sea Level Pressure  
Sea Level Pressure 30.12 in    
Wind  
Wind Speed 8 mph (SE)    
Max Wind Speed 14 mph    
Max Gust Speed 17 mph    
Visibility 10 miles    
Events      
T = Trace of Precipitation, MM = Missing Value Source: NWS Daily Summary

Daily Weather History Graph

Daily Weather History Graph

Search for Another Location

Airport or City:

Trip Planner

Search our weather history database for the weather conditions in past years. The results will help you decide how hot, cold, wet, or windy it might be!

Date:

Astronomy

Jun. 16, 2013 Rise Set
Actual Time 6:21 AM EDT 8:31 PM EDT
Civil Twilight 5:53 AM EDT 8:59 PM EDT
Nautical Twilight 5:19 AM EDT 9:33 PM EDT
Astronomical Twilight 4:42 AM EDT 10:10 PM EDT
Moon 1:28 PM EDT (6/16) 1:00 AM EDT (6/16)
Length of Visible Light 15h 05m
Length of Day
14h 10m
Waxing Crescent, 49% of the Moon is Illuminated
Jun 16
Waxing Crescent
Jun 16
First Quarter
Jun 23
Full
Jun 30
Last Quarter
Jul 8
New

Hourly Weather History & Observations

Time (EDT) Temp. Heat Index Dew Point Humidity Pressure Visibility Wind Dir Wind Speed Gust Speed Precip Events Conditions
12:53 AM 78.1 °F - 66.0 °F 66% 30.12 in 10.0 mi SE 12.7 mph - N/A   Partly Cloudy
1:53 AM 78.1 °F - 66.0 °F 66% 30.12 in 10.0 mi SE 10.4 mph 17.3 mph N/A   Mostly Cloudy
2:53 AM 78.1 °F - 66.0 °F 66% 30.12 in 10.0 mi SE 8.1 mph - N/A   Mostly Cloudy
3:53 AM 77.0 °F - 66.0 °F 69% 30.11 in 10.0 mi SE 9.2 mph - N/A   Scattered Clouds
4:53 AM 77.0 °F - 66.0 °F 69% 30.12 in 10.0 mi SE 6.9 mph - N/A   Scattered Clouds
5:53 AM 77.0 °F - 66.0 °F 69% 30.12 in 10.0 mi SSE 6.9 mph - N/A   Scattered Clouds
6:53 AM 77.0 °F - 66.0 °F 69% 30.13 in 10.0 mi South 5.8 mph - N/A   Partly Cloudy
7:53 AM 79.0 °F - 66.9 °F 66% 30.14 in 10.0 mi SE 6.9 mph - N/A   Clear
8:53 AM 80.1 °F 81.9 °F 64.9 °F 60% 30.16 in 10.0 mi ESE 5.8 mph - N/A   Clear
9:53 AM 81.0 °F 83.3 °F 66.9 °F 62% 30.16 in 10.0 mi ESE 5.8 mph - N/A   Clear
10:53 AM 82.0 °F 84.1 °F 66.0 °F 58% 30.15 in 10.0 mi Variable 3.5 mph - N/A   Clear
11:53 AM 82.9 °F 84.6 °F 64.9 °F 54% 30.15 in 10.0 mi East 6.9 mph - N/A   Clear
12:53 PM 82.9 °F 84.6 °F 64.9 °F 54% 30.14 in 10.0 mi East 11.5 mph 16.1 mph N/A   Clear
1:53 PM 82.9 °F 84.6 °F 64.9 °F 54% 30.13 in 10.0 mi ESE 9.2 mph - N/A   Clear
2:53 PM 84.0 °F 85.8 °F 64.9 °F 53% 30.12 in 10.0 mi East 11.5 mph - N/A   Clear
3:53 PM 84.0 °F 85.8 °F 64.9 °F 53% 30.10 in 10.0 mi ESE 10.4 mph - N/A   Clear
4:53 PM 82.9 °F 84.4 °F 64.0 °F 53% 30.09 in 10.0 mi ESE 10.4 mph - N/A   Clear
5:53 PM 82.9 °F 84.4 °F 64.0 °F 53% 30.08 in 10.0 mi ESE 10.4 mph - N/A   Clear
6:53 PM 81.0 °F 82.7 °F 64.9 °F 58% 30.09 in 10.0 mi ESE 10.4 mph 28.8 mph N/A   Clear
7:53 PM 80.1 °F 81.9 °F 64.9 °F 60% 30.09 in 10.0 mi ESE 8.1 mph - N/A   Clear
8:53 PM 79.0 °F - 68.0 °F 69% 30.09 in 10.0 mi SSE 5.8 mph - N/A   Clear
9:53 PM 78.1 °F - 69.1 °F 74% 30.09 in 10.0 mi SE 10.4 mph - N/A   Clear
10:53 PM 79.0 °F - 69.1 °F 72% 30.10 in 10.0 mi SSE 6.9 mph - N/A   Clear
11:53 PM 79.0 °F - 70.0 °F 74% 30.11 in 10.0 mi South 6.9 mph - N/A   Partly Cloudy